• In Uzbekistan
  • List of Countries
  • For 7 days
  • Water Temperature
  • Satellite Maps
  • Weather Map
  • Weather Widgets
  • user-avatar
    Login

    Hourly Weather Pszczeliny

    Today, 24 June, Monday

    Time Temperature Precipitation Wind Pressure Humidity
    00:00 +17°C° 0 mm 2 mps 712 mmHg 98%
    01:00 +17°C° 0 mm 2 mps 713 mmHg 97%
    02:00 +18°C° 0 mm 3 mps 713 mmHg 98%
    03:00 +17°C° 0 mm 3 mps 713 mmHg 98%
    04:00 +17°C° 0 mm 2 mps 713 mmHg 98%
    05:00 +17°C° 0 mm 2 mps 713 mmHg 98%
    06:00 +17°C° 0 mm 2 mps 713 mmHg 96%
    07:00 +18°C° 0 mm 3 mps 713 mmHg 94%
    08:00 +18°C° 0 mm 3 mps 714 mmHg 92%
    09:00 +18°C° 0 mm 3 mps 714 mmHg 90%
    10:00 +19°C° 0 mm 3 mps 714 mmHg 89%
    11:00 +19°C° 0 mm 3 mps 714 mmHg 87%
    12:00 +19°C° 0 mm 3 mps 715 mmHg 86%
    13:00 +19°C° 0 mm 3 mps 715 mmHg 85%
    14:00 +20°C° 0 mm 4 mps 715 mmHg 85%
    15:00 +20°C° 0 mm 4 mps 715 mmHg 85%
    16:00 +20°C° 0 mm 4 mps 715 mmHg 85%
    17:00 +20°C° 0 mm 4 mps 715 mmHg 85%
    18:00 +20°C° 0 mm 3 mps 715 mmHg 87%
    19:00 +19°C° 0 mm 3 mps 715 mmHg 89%
    20:00 +19°C° 0 mm 3 mps 715 mmHg 91%
    21:00 +18°C° 0 mm 2 mps 716 mmHg 93%
    22:00 +18°C° 0 mm 2 mps 716 mmHg 95%
    23:00 +17°C° 0 mm 2 mps 716 mmHg 98%

    Tomorrow, 25 June, Tuesday

    Time Temperature Precipitation Wind Pressure Humidity
    00:00 +17°C° 0 mm 2 mps 716 mmHg 98%
    01:00 +18°C° 0 mm 1 mps 716 mmHg 98%
    02:00 +18°C° 0 mm 1 mps 716 mmHg 98%
    03:00 +18°C° 0 mm 1 mps 716 mmHg 98%
    04:00 +18°C° 0 mm 1 mps 716 mmHg 98%
    05:00 +18°C° 0 mm 1 mps 716 mmHg 98%
    06:00 +18°C° 0 mm 2 mps 717 mmHg 93%
    07:00 +20°C° 0 mm 2 mps 717 mmHg 88%
    08:00 +21°C° 0 mm 2 mps 718 mmHg 82%
    09:00 +22°C° 0 mm 3 mps 718 mmHg 76%
    10:00 +24°C° 0 mm 3 mps 718 mmHg 71%
    11:00 +26°C° 0 mm 3 mps 718 mmHg 65%
    12:00 +25°C° 0 mm 3 mps 718 mmHg 64%
    13:00 +26°C° 0 mm 4 mps 718 mmHg 60%
    14:00 +27°C° 0 mm 4 mps 718 mmHg 57%
    15:00 +27°C° 0 mm 4 mps 718 mmHg 60%
    16:00 +26°C° 0 mm 4 mps 718 mmHg 63%
    17:00 +26°C° 0 mm 4 mps 717 mmHg 66%
    18:00 +24°C° 0 mm 3 mps 717 mmHg 74%
    19:00 +22°C° 0 mm 3 mps 717 mmHg 82%
    20:00 +20°C° 0 mm 2 mps 717 mmHg 90%
    21:00 +19°C° 0 mm 2 mps 718 mmHg 92%
    22:00 +18°C° 0 mm 2 mps 718 mmHg 95%
    23:00 +18°C° 0 mm 1 mps 718 mmHg 98%

    Day after tomorrow, 26 June, Wednesday

    Time Temperature Precipitation Wind Pressure Humidity
    00:00 +18°C° 0 mm 1 mps 718 mmHg 97%
    01:00 +18°C° 0 mm 1 mps 718 mmHg 97%
    02:00 +16°C° 0 mm 1 mps 718 mmHg 97%
    03:00 +16°C° 0 mm 1 mps 717 mmHg 97%
    04:00 +16°C° 0 mm 1 mps 717 mmHg 96%
    05:00 +16°C° 0 mm 1 mps 717 mmHg 96%
    06:00 +19°C° 0 mm 1 mps 717 mmHg 89%
    07:00 +22°C° 0 mm 1 mps 718 mmHg 83%
    08:00 +22°C° 0 mm 0 mps 718 mmHg 76%
    09:00 +24°C° 0 mm 0 mps 718 mmHg 67%
    10:00 +28°C° 0 mm 1 mps 718 mmHg 57%
    11:00 +30°C° 0 mm 1 mps 718 mmHg 47%
    12:00 +30°C° 0 mm 1 mps 718 mmHg 44%
    13:00 +31°C° 0 mm 1 mps 718 mmHg 42%
    14:00 +31°C° 0 mm 2 mps 718 mmHg 39%
    15:00 +31°C° 0 mm 2 mps 717 mmHg 44%
    16:00 +30°C° 0 mm 2 mps 717 mmHg 49%
    17:00 +29°C° 0 mm 2 mps 716 mmHg 54%
    18:00 +27°C° 0 mm 1 mps 716 mmHg 64%
    19:00 +25°C° 0 mm 1 mps 715 mmHg 74%
    20:00 +21°C° 0 mm 0 mps 715 mmHg 84%
    21:00 +20°C° 0 mm 0 mps 715 mmHg 84%
    22:00 +19°C° 0 mm 0 mps 715 mmHg 84%
    23:00 +20°C° 0 mm 1 mps 714 mmHg 84%

    27 June, Thursday

    Time Temperature Precipitation Wind Pressure Humidity
    00:00 +20°C° 0 mm 1 mps 714 mmHg 82%
    01:00 +20°C° 0 mm 1 mps 714 mmHg 81%
    02:00 +20°C° 0 mm 1 mps 713 mmHg 79%
    03:00 +20°C° 0 mm 1 mps 713 mmHg 78%
    04:00 +19°C° 0 mm 1 mps 713 mmHg 78%
    05:00 +19°C° 0 mm 1 mps 712 mmHg 77%
    06:00 +21°C° 0 mm 1 mps 712 mmHg 73%
    07:00 +23°C° 0 mm 2 mps 712 mmHg 68%
    08:00 +25°C° 0 mm 2 mps 712 mmHg 64%
    09:00 +26°C° 0 mm 2 mps 712 mmHg 62%
    10:00 +28°C° 0 mm 3 mps 712 mmHg 59%
    11:00 +29°C° 0 mm 4 mps 712 mmHg 56%
    12:00 +28°C° 1.3 mm 3 mps 712 mmHg 67%
    13:00 +26°C° 1.3 mm 3 mps 711 mmHg 78%
    14:00 +25°C° 1.3 mm 3 mps 711 mmHg 88%
    15:00 +24°C° 1.8 mm 3 mps 710 mmHg 89%
    16:00 +24°C° 1.8 mm 2 mps 710 mmHg 90%
    17:00 +23°C° 1.8 mm 2 mps 710 mmHg 91%
    18:00 +21°C° 0 mm 2 mps 710 mmHg 91%
    19:00 +20°C° 0 mm 2 mps 710 mmHg 90%
    20:00 +19°C° 0 mm 2 mps 709 mmHg 90%
    21:00 +18°C° 0 mm 2 mps 709 mmHg 93%
    22:00 +17°C° 0 mm 2 mps 710 mmHg 95%
    23:00 +16°C° 0 mm 1 mps 710 mmHg 97%

    28 June, Friday

    Time Temperature Precipitation Wind Pressure Humidity
    00:00 +16°C° 0.2 mm 2 mps 710 mmHg 98%
    01:00 +16°C° 0.2 mm 2 mps 710 mmHg 98%
    02:00 +16°C° 0.2 mm 2 mps 710 mmHg 98%
    03:00 +15°C° 0 mm 2 mps 709 mmHg 98%
    04:00 +15°C° 0 mm 1 mps 709 mmHg 98%
    05:00 +14°C° 0 mm 1 mps 709 mmHg 99%
    06:00 +15°C° 0 mm 1 mps 709 mmHg 91%
    07:00 +15°C° 0 mm 2 mps 710 mmHg 83%
    08:00 +16°C° 0 mm 2 mps 710 mmHg 75%
    09:00 +17°C° 0 mm 2 mps 710 mmHg 65%
    10:00 +19°C° 0 mm 3 mps 710 mmHg 55%
    11:00 +20°C° 0 mm 3 mps 710 mmHg 45%
    12:00 +21°C° 0 mm 3 mps 710 mmHg 47%
    13:00 +22°C° 0 mm 3 mps 710 mmHg 49%
    14:00 +22°C° 0 mm 3 mps 710 mmHg 51%
    15:00 +22°C° 0.2 mm 4 mps 710 mmHg 54%
    16:00 +21°C° 0.2 mm 4 mps 710 mmHg 58%
    17:00 +20°C° 0.2 mm 4 mps 709 mmHg 61%
    18:00 +19°C° 0 mm 4 mps 709 mmHg 69%
    19:00 +17°C° 0 mm 3 mps 709 mmHg 76%
    20:00 +16°C° 0 mm 3 mps 709 mmHg 84%
    21:00 +15°C° 0.1 mm 2 mps 710 mmHg 88%
    22:00 +14°C° 0.1 mm 2 mps 710 mmHg 93%
    23:00 +13°C° 0.1 mm 2 mps 711 mmHg 97%

    29 June, Saturday

    Time Temperature Precipitation Wind Pressure Humidity
    00:00 +12°C° 0 mm 2 mps 711 mmHg 97%
    01:00 +12°C° 0 mm 1 mps 711 mmHg 97%
    02:00 +11°C° 0 mm 1 mps 711 mmHg 97%
    03:00 +11°C° 0 mm 1 mps 711 mmHg 97%
    04:00 +10°C° 0 mm 1 mps 711 mmHg 97%
    05:00 +9°C° 0 mm 1 mps 711 mmHg 97%
    06:00 +11°C° 0 mm 1 mps 711 mmHg 87%
    07:00 +12°C° 0 mm 1 mps 711 mmHg 77%
    08:00 +14°C° 0 mm 1 mps 711 mmHg 67%
    09:00 +15°C° 0 mm 2 mps 712 mmHg 59%
    10:00 +17°C° 0 mm 2 mps 712 mmHg 51%
    11:00 +19°C° 0 mm 2 mps 712 mmHg 43%
    12:00 +20°C° 0 mm 2 mps 712 mmHg 43%
    13:00 +20°C° 0 mm 3 mps 711 mmHg 44%
    14:00 +21°C° 0 mm 3 mps 711 mmHg 45%
    15:00 +20°C° 0.1 mm 2 mps 711 mmHg 57%
    16:00 +18°C° 0.1 mm 2 mps 710 mmHg 68%
    17:00 +18°C° 0.1 mm 1 mps 709 mmHg 80%
    18:00 +16°C° 0.3 mm 1 mps 710 mmHg 84%
    19:00 +16°C° 0.3 mm 1 mps 710 mmHg 88%
    20:00 +15°C° 0.3 mm 1 mps 710 mmHg 92%
    21:00 +14°C° 0 mm 1 mps 710 mmHg 93%
    22:00 +13°C° 0 mm 1 mps 710 mmHg 94%
    23:00 +13°C° 0 mm 1 mps 711 mmHg 95%
    Show more